Jackpot

Texas Poker Multi Jackpot System

Kini Telah hadir Jackpot SUPER ROYAL FLUSH

Kini Telah hadir Jackpot 2000 (khusus table VIP keatas).

Ikutilah global jackpot yang tersedia di system kami, dengan system jackpot terbaru dan pertama di indonesia, anda dapat membeli jackpot dengan harga 100 rupiah saja dan menangkan hadiahnya hingga puluhan juta rupiah.

Jackpot bukanlah suatu keharusan untuk dibeli, namun kami memberikan suatu fitur tambahan untuk member tercinta dari www.kartujitu.com.

Terdapat tiga pilihan harga jackpot yang bisa anda beli yaitu :100,500,1000 dan 2000(khusus table VIP Keatas) rupiah.

Hadiah dari Multi jackpot system www.kartujitu.com

  1. full house x 10 harga jackpot yang anda beli.
      (contoh:anda membeli 1000 maka:1000 X10 = 10.000)
  2. four of kind x 250 harga jackpot yang anda beli
      (contoh:anda membeli 1000 maka:1000 X250 = 250.000)
  3. Straight flush x 1200
      (contoh:anda membeli 1000 maka:1000 X1200 = 1.200.000)
  4. Royal flush x 10000 harga jackpot yang anda beli
      (contoh:anda membeli 1000 maka:1000 X10000 = 10.000.000)
  5. SUPER ROYAL FLUSH x 30000 harga jackpot yang anda beli
      (contoh:anda membeli 1000 maka:1000 X30000 = 30.000.000)

Kondisi kartu

  1. full house adalah kondisi kartu dimana kartu anda dan kartu tengah dengan total 7 kartu bisa mendapatkan nilai 5 kartu dengan kombinasi 1 tris(three of kind) dan 1 pair, contoh 3 kartu 10 dan 2 kartu 5
  2. Four of kind adalah kondisi kartu dimana kartu anda dan kartu tengah dengan total 7 kartu bisa mendapatkan nilai 5 kartu dengan kombinasi 4 kartu yang sama jumlah dan 1 kartu apapun juga contoh anda mendapatkan 4 buah kartu angka 3 dan 1 kartu apapun.
  3. Staright flush adalah kondisi kartu dimana kartu anda dan kartu tengah dengan total 7 kartu bisa mendapatkan nilai 5 kartu dengan kombinasi seri / staright dengan kembang yang sama contoh : urutan kartu dari angka 5, 6, 7, 8 , 9 10 dengan kembang yg sama misalnya as hati
  4. Royal flush adalah kondisi kartu dimana kartu anda dan kartu tengah dengan total 7 kartu bisa mendapatkan nilai 5 kartu dengan kombinasi seri / staright dengan kembang yang sama tetapi kartu tersebut haruslah dimulai dari 10. contoh 10, Queen, Jack, King dan aces dengan kembang yang sama
  5. Super Royal flush adalah kondisi kartu dimana Kedua kartu anda digabung dengan 3 kartu pertama meja haruslah royal flush. contoh kartu anda 10,Queen kembang sama dan 3 kartu pertama meja adalah Jack, King dan aces dengan kembang yang sama

Demikian adalah penjelasan dari Multi Jackpot www.kartujitu.com terima kasih dan selamat bermain salam hoki dari kami

Texas Poker Jackpot Winner

TOP SUPER ROYAL FLUSH
No.TanggalNamaPriceWin
124/11 20:20DEVLONARISuper Royal flush3,000,000
224/11 15:45BALAPMOBILSuper Royal flush15,000,000
324/11 14:22RFUWSuper Royal flush60,000,000
424/11 11:02ARCIL420Super Royal flush3,000,000
524/11 06:38WID_RAU99Super Royal flush3,000,000
TOP ROYAL FLUSH
No.TanggalNamaPriceWin
125/11 09:07RANO3734Royal flush2,000,000
225/11 08:21SWAMPLOKRoyal flush2,000,000
325/11 08:20M3RAPI39Royal flush1,000,000
425/11 07:46AGAS80Royal flush20,000,000
525/11 07:43MYJASMINERoyal flush2,000,000
TOP STRAIGHT FLUSH
No.TanggalNamaPriceWin
125/11 09:05SI_T4MP4NStraight Flush1,200,000
225/11 08:54KADALLL97Straight Flush1,200,000
325/11 08:53MB33UCULStraight Flush1,200,000
425/11 08:51J4D1_LH777Straight Flush240,000
525/11 08:48F9E57F3FStraight Flush240,000
LATEST JACKPOT
No.TanggalNamaPriceWin
125/11 09:07AIRA15Full House5,000
225/11 09:07AR1986WINFull House2,000
325/11 09:07KAM01Full House5,000
425/11 09:07PAYO9Full House5,000
525/11 09:07GEMBUL1211Four Of A Kind50,000
625/11 09:07ZUMBA7380Full House2,000
725/11 09:07ARCERYFull House20,000
825/11 09:07KHOBIRUSFull House1,000
925/11 09:07RANO3734Royal flush2,000,000
1025/11 09:07MANYAL05Full House2,000
1125/11 09:07JUBAEDAH1Full House10,000
1225/11 09:07OMO77Full House2,000
1325/11 09:07Y4PS3N6Full House1,000
1425/11 09:07BARAK11Full House5,000
1525/11 09:07RCKY1508Full House5,000
1625/11 09:07DMSPMKFour Of A Kind50,000
1725/11 09:07JONY00Full House2,000
1825/11 09:07SANTAI358Full House2,000
1925/11 09:07MIAIM0ETFull House5,000
2025/11 09:07HOKITAJA12Full House10,000
2125/11 09:07IZ115562Full House1,000
2225/11 09:06AD3NSUSFour Of A Kind125,000
2325/11 09:06CERIA9999Full House5,000
2425/11 09:06KANGNDIFour Of A Kind250,000
2525/11 09:06GUSA1234Four Of A Kind125,000
2625/11 09:06SECRETT4Full House1,000
2725/11 09:06BOIMIMUTFull House20,000
2825/11 09:06CDM9OR6OM6Full House5,000
2925/11 09:06DAFTSTAR__Full House5,000
3025/11 09:06REGAVFull House5,000
3125/11 09:06JUDITHEFull House10,000
3225/11 09:06H3PPY88Full House1,000
3325/11 09:06SNIPERS88Full House1,000
3425/11 09:06JOEHANZ87Full House5,000
3525/11 09:06OPPOKI46Full House10,000
3625/11 09:06KONTOLPEJUFull House1,000
3725/11 09:06IWP1M6QJHZFull House2,000
3825/11 09:06AKTEMPEFull House5,000
3925/11 09:06P45T1_0KFull House2,000
4025/11 09:06EXPRESSS21Full House2,000
4125/11 09:06NOVAL309Full House5,000
4225/11 09:06BEJO133Full House2,000
4325/11 09:06DRAGON013Full House1,000
4425/11 09:06CINDE1Four Of A Kind50,000
4525/11 09:06JABAR002Full House2,000
4625/11 09:06DDWW12Four Of A Kind50,000
4725/11 09:05PEMPIKFull House10,000
4825/11 09:05DEVAC17Full House1,000
4925/11 09:05DUR3XASFull House10,000
5025/11 09:05CHECHE78Full House5,000

Domino Multi Jackpot System

Ikutilah global jackpot yang tersedia di system kami, dengan system jackpot terbaru dan pertama di indonesia, anda dapat membeli jackpot dengan harga 100 rupiah saja dan menangkan hadiahnya hingga puluhan juta rupiah.

Jackpot bukanlah suatu keharusan untuk dibeli, namun kami memberikan suatu fitur tambahan untuk member tercinta dari www.kartujitu.com.

Terdapat tiga pilihan harga jackpot yang bisa anda beli yaitu :100,500 dan 1000 rupiah.

Hadiah dari Multi jackpot system www.kartujitu.com

  1. Murni Kecil x 50 harga jackpot yang anda beli.
      (contoh:anda membeli 1000 maka:1000 X 50 = 50.000)
  2. Murni Besar x 50 harga jackpot yang anda beli
      (contoh:anda membeli 1000 maka:1000 X 50 = 50.000)
  3. BALAK x 100 harga jackpot yang anda beli
      (contoh:anda membeli 1000 maka:1000 X 100 = 100.000)
  4. ENAM DEWA x 6666 harga jackpot yang anda beli
      (contoh:anda membeli 1000 maka:1000 X 6666 = 6.666.000)

Demikian adalah penjelasan dari Multi Jackpot www.kartujitu.com terima kasih dan selamat bermain salam hoki dari kami

Domino Jackpot Winner

TOP ENAM DEWA
No.TanggalNamaPriceWin
125/11 06:22Z4EEM99murni enam6,666,000
225/11 04:57AMPUN_BOmurni enam6,666,000
325/11 01:50KKTL99murni enam666,600
425/11 01:47AL1N3murni enam3,333,000
525/11 01:44N8CIDQ9S8Emurni enam666,600
TOP BALAK
No.TanggalNamaPriceWin
125/11 09:05BOMZKIIY93balak50,000
225/11 09:00RAVINbalak100,000
325/11 08:53CIKA72balak100,000
425/11 08:52GUN4ONEbalak50,000
525/11 08:49KOO86balak10,000
LATEST JACKPOT
No.TanggalNamaPriceWin
125/11 09:07W4K4Zmurni kecil50,000
225/11 09:07CHANZZ69murni besar5,000
325/11 09:07YAHUTSSSmurni kecil50,000
425/11 09:06RAJAWALI02murni kecil50,000
525/11 09:06BOBOBO123murni kecil50,000
625/11 09:06HOME636murni kecil50,000
725/11 09:06DENII11murni besar50,000
825/11 09:05CIKA72murni besar50,000
925/11 09:05BOMZKIIY93balak50,000
1025/11 09:04WANK25murni kecil5,000
1125/11 09:04BURUS234murni besar50,000
1225/11 09:03BENTEPA29murni besar25,000
1325/11 09:03MEONG197murni besar25,000
1425/11 09:00RAVINbalak100,000
1525/11 08:58RISKY546murni besar5,000
1625/11 08:58VAUGE96MNMmurni kecil25,000
1725/11 08:57YAHUTSSSmurni besar50,000
1825/11 08:57KES_RAKmurni besar50,000
1925/11 08:57KENTO80murni kecil25,000
2025/11 08:57BUYAN98murni kecil50,000
2125/11 08:56ZEYY89murni kecil25,000
2225/11 08:55GENTAR17murni besar50,000
2325/11 08:54TEPUC66Kmurni kecil25,000
2425/11 08:53CIKA72balak100,000
2525/11 08:52GUN4ONEbalak50,000
2625/11 08:51AYOO66murni besar25,000
2725/11 08:49KOO86balak10,000
2825/11 08:49YAHUTSSSmurni kecil50,000
2925/11 08:48BOOMLIKEmurni kecil5,000
3025/11 08:47NYONYADCbalak10,000
3125/11 08:47GANDUT22murni besar50,000
3225/11 08:46AWAK5murni besar25,000
3325/11 08:45SEBLEK21murni besar25,000
3425/11 08:44SSAASSmurni kecil25,000
3525/11 08:43KES_RAKmurni kecil50,000
3625/11 08:43L3F1balak100,000
3725/11 08:42VYATTAmurni kecil50,000
3825/11 08:42E618B031balak10,000
3925/11 08:42JAJG171124murni kecil50,000
4025/11 08:41TABAN99murni kecil25,000
4125/11 08:41FAHMI989murni besar25,000
4225/11 08:41NPTJB1C5BUmurni besar50,000
4325/11 08:41RITAJONESmurni kecil50,000
4425/11 08:41SEIERAmurni kecil50,000
4525/11 08:40KIZAROTmurni besar25,000
4625/11 08:40BUDICIPTOmurni besar5,000
4725/11 08:40AYTOMEmurni kecil50,000
4825/11 08:40RAVINmurni besar50,000
4925/11 08:39ILHAMS89murni besar50,000
5025/11 08:39GUN4ONEbalak50,000

Ceme Multi Jackpot System

Jackpot dilihat dari gabungan kartu pemain dengan kartu bandar. Bandar harus membeli jackpot sebanyak jumlah player yang sedang duduk. Sebagai contoh bila terdapat 3 pemain duduk bermain, dan bandar memutuskan untuk membeli jackpot Rp 1.000, maka pada periode tersebut bandar akan membeli jackpot sebanyak 3xRp1.000 = Rp3.000.

Jackpot bukanlah suatu keharusan untuk dibeli, namun kami memberikan suatu fitur tambahan untuk member tercinta dari www.kartujitu.com.

Terdapat tiga pilihan harga jackpot yang bisa anda beli yaitu :100,500 dan 1000 rupiah.

Hadiah dari Multi jackpot system www.kartujitu.com

  1. Murni Kecil x 50 harga jackpot yang anda beli.
      (contoh:anda membeli 1000 maka:1000 X 50 = 50.000)
  2. Murni Besar x 50 harga jackpot yang anda beli
      (contoh:anda membeli 1000 maka:1000 X 50 = 50.000)
  3. BALAK x 200 harga jackpot yang anda beli
      (contoh:anda membeli 1000 maka:1000 X 200 = 200.000)
  4. ENAM DEWA x 6666 harga jackpot yang anda beli
      (contoh:anda membeli 1000 maka:1000 X 6666 = 6.666.000)

Demikian adalah penjelasan dari Multi Jackpot www.kartujitu.com terima kasih dan selamat bermain salam hoki dari kami

Ceme Jackpot Winner

TOP ENAM DEWA
No.TanggalNamaPriceWin
125/11 09:00LUKIZHIANGmurni enam6,666,000
225/11 09:00KAKANGBRAMmurni enam6,666,000
325/11 08:56RENI4874murni enam6,666,000
425/11 08:20OBBI10murni enam6,666,000
525/11 08:20MISKE12murni enam666,600
TOP BALAK
No.TanggalNamaPriceWin
125/11 09:06MRIZALNS29balak20,000
225/11 09:05HIDAYA3balak100,000
325/11 09:05YOUTKCWWC9balak200,000
425/11 09:04C2AAF4C2balak200,000
525/11 09:04EGLINbalak200,000
LATEST JACKPOT
No.TanggalNamaPriceWin
125/11 09:07REJEKIYOKOmurni kecil25,000
225/11 09:07FEBRI80murni kecil5,000
325/11 09:07T9VY80KRHGmurni besar5,000
425/11 09:06RUDZ999murni kecil50,000
525/11 09:06RUDZ999murni kecil50,000
625/11 09:06LUSIMARETHmurni kecil5,000
725/11 09:06BIOUmurni besar25,000
825/11 09:06MRIZALNS29balak20,000
925/11 09:06AMARA88murni besar50,000
1025/11 09:06YAS29murni besar50,000
1125/11 09:05HIDAYA3balak100,000
1225/11 09:05LUKIZHIANGmurni kecil50,000
1325/11 09:05SIKON69murni besar25,000
1425/11 09:05DITA122murni besar25,000
1525/11 09:05GROSIR07murni kecil50,000
1625/11 09:05YOUTKCWWC9balak200,000
1725/11 09:05IXKC0GGG09murni besar50,000
1825/11 09:05ARRAYPROmurni besar5,000
1925/11 09:05LB881016murni kecil50,000
2025/11 09:04RUDZ999murni besar50,000
2125/11 09:04C2AAF4C2balak200,000
2225/11 09:04KOPLING17murni kecil5,000
2325/11 09:04T0PZHZNAUWmurni kecil50,000
2425/11 09:04BG370Xmurni kecil25,000
2525/11 09:04EGLINbalak200,000
2625/11 09:03RUDI0610murni kecil5,000
2725/11 09:03PLECI899balak100,000
2825/11 09:03WAKMEL123balak20,000
2925/11 09:03C2AAF4C2murni besar50,000
3025/11 09:03CIO244murni kecil5,000
3125/11 09:03PIKER3939murni kecil5,000
3225/11 09:03V94murni besar25,000
3325/11 09:03THEYWEmurni besar25,000
3425/11 09:03CUTRANI233murni kecil5,000
3525/11 09:02EFISBAEbalak200,000
3625/11 09:02HENGKII136murni besar50,000
3725/11 09:02YAYAWN58murni besar50,000
3825/11 09:02FDJ888murni kecil50,000
3925/11 09:01MUBARAK89murni besar50,000
4025/11 09:01CH4RLE55murni kecil50,000
4125/11 09:01Y4M4HA65murni kecil50,000
4225/11 09:01J3J3NAPObalak200,000
4325/11 09:01KEMANGI3murni kecil50,000
4425/11 09:01BAGREN88murni kecil25,000
4525/11 09:01YAMASURDHAbalak200,000
4625/11 09:01RHM21murni besar5,000
4725/11 09:00IKLIM1980murni kecil50,000
4825/11 09:00LUKIZHIANGmurni enam6,666,000
4925/11 09:00KAKANGBRAMmurni enam6,666,000
5025/11 09:00COSMOS33murni besar5,000